Yakima, WA
on Monday, February 25, 2013

Monday
Previous Day Next Day
Daily Summary
 ActualAverageRecord
Temperature
Mean Temperature °F / °C 38°F / 3°C  
Max Temperature 54°F / 12°C 50°F / 10°C 67°F / 19°C (1986)
Min Temperature 27°F / -3°C 27°F / -3°C 3°F / -16°C (1993)
Degree Days
Heating Degree Days 24 27  
Month to date heating degree days 621 730  
Since 1 July heating degree days 3890 4448  
Cooling Degree Days 0 0  
Month to date cooling degree days 0 0  
Year to date cooling degree days 0 0  
Moisture
Dew Point 23°F / -5°C   
Average Humidity 52    
Maximum Humidity 78    
Minimum Humidity 26    
Precipitation
Precipitation 0.00 in / 0.00 cm 0.03 in / 0.76 cm 0.44 in / 1.12 cm (2004)
Month to date precipitation T 0.70  
Year to date precipitation 0.10 1.84  
Snow
Snow 0.00 in / 0.00 cm 0.10 in / 0.25 cm T in / T cm (2007)
Month to date snowfall 0.0 2.4  
Year to date snowfall 1.1 7.7  
Since 1 July snowfall 15.3 20.7  
Snow Depth 0.00 in / 0.00 cm   
Wind
Wind Speed 10 mph / 17 km/h   
Max Wind Speed 33 mph / 53 km/h   
Max Gust Speed 41 mph / 66 km/h   
Visibility 10 miles / 16 kilometers   
Events     

Key: T is trace of precipitation, MM is missing value
Source: NWS Daily Summary
Time(PST)TemperatureDew PointHumidity Pressure Visibility Wind DirectionWind SpeedGust SpeedPrecipitationEvents Conditions
12:53 AM 33.1°F / 0.6°C 26.1°F / -3.3°C 75% 30.01 in / 1016.0 hPa 10.0 miles / 16.1 kilometers Calm Calm - N/A   Overcast
1:53 AM 34.0°F / 1.1°C 26.1°F / -3.3°C 73% 29.97 in / 1014.9 hPa 10.0 miles / 16.1 kilometers Calm Calm - N/A   Overcast
2:53 AM 33.1°F / 0.6°C 26.1°F / -3.3°C 75% 29.95 in / 1014.2 hPa 10.0 miles / 16.1 kilometers West 4.6 mph / 7.4 km/h - N/A   Mostly Cloudy
3:53 AM 35.1°F / 1.7°C 27.0°F / -2.8°C 72% 29.94 in / 1013.8 hPa 10.0 miles / 16.1 kilometers NW 5.8 mph / 9.3 km/h - N/A   Overcast
4:53 AM 34.0°F / 1.1°C 27.0°F / -2.8°C 75% 29.94 in / 1013.7 hPa 10.0 miles / 16.1 kilometers SE 4.6 mph / 7.4 km/h - N/A   Mostly Cloudy
5:53 AM 30.0°F / -1.1°C 25.0°F / -3.9°C 82% 29.95 in / 1014.2 hPa 10.0 miles / 16.1 kilometers WNW 6.9 mph / 11.1 km/h - N/A   Clear
6:53 AM 30.0°F / -1.1°C 25.0°F / -3.9°C 82% 29.98 in / 1015.1 hPa 10.0 miles / 16.1 kilometers West 6.9 mph / 11.1 km/h - N/A   Partly Cloudy
7:53 AM 35.1°F / 1.7°C 27.0°F / -2.8°C 72% 29.98 in / 1015.2 hPa 10.0 miles / 16.1 kilometers Calm Calm - N/A   Partly Cloudy
8:53 AM 39.9°F / 4.4°C 28.0°F / -2.2°C 63% 30.00 in / 1015.7 hPa 10.0 miles / 16.1 kilometers ENE 3.5 mph / 5.6 km/h - N/A   Partly Cloudy
9:53 AM 48.9°F / 9.4°C 28.9°F / -1.7°C 46% 29.99 in / 1015.5 hPa 10.0 miles / 16.1 kilometers Calm Calm - N/A   Scattered Clouds
10:53 AM 52.0°F / 11.1°C 25.0°F / -3.9°C 35% 29.99 in / 1015.6 hPa 10.0 miles / 16.1 kilometers WSW 17.3 mph / 27.8 km/h 23.0 mph / 37.0 km/h N/A   Scattered Clouds
11:53 AM 52.0°F / 11.1°C 23.0°F / -5.0°C 32% 30.00 in / 1015.9 hPa 10.0 miles / 16.1 kilometers West 26.5 mph / 42.6 km/h 36.8 mph / 59.3 km/h N/A   Scattered Clouds
12:53 PM 53.1°F / 11.7°C 19.9°F / -6.7°C 27% 30.00 in / 1015.7 hPa 10.0 miles / 16.1 kilometers West 20.7 mph / 33.3 km/h 34.5 mph / 55.6 km/h N/A   Scattered Clouds
1:53 PM 52.0°F / 11.1°C 18.0°F / -7.8°C 26% 30.00 in / 1015.9 hPa 10.0 miles / 16.1 kilometers West 23.0 mph / 37.0 km/h 36.8 mph / 59.3 km/h N/A   Scattered Clouds
2:53 PM 52.0°F / 11.1°C 18.0°F / -7.8°C 26% 30.01 in / 1016.3 hPa 10.0 miles / 16.1 kilometers West 28.8 mph / 46.3 km/h 35.7 mph / 57.4 km/h N/A   Clear
3:53 PM 50.0°F / 10.0°C 19.9°F / -6.7°C 31% 30.07 in / 1018.1 hPa 10.0 miles / 16.1 kilometers WNW 15.0 mph / 24.1 km/h 25.3 mph / 40.7 km/h N/A   Clear
4:53 PM 46.9°F / 8.3°C 19.9°F / -6.7°C 34% 30.08 in / 1018.6 hPa 10.0 miles / 16.1 kilometers WNW 21.9 mph / 35.2 km/h 33.4 mph / 53.7 km/h N/A   Clear
5:53 PM 44.1°F / 6.7°C 19.0°F / -7.2°C 37% 30.11 in / 1019.6 hPa 10.0 miles / 16.1 kilometers West 16.1 mph / 25.9 km/h 28.8 mph / 46.3 km/h N/A   Clear
6:53 PM 39.0°F / 3.9°C 19.9°F / -6.7°C 46% 30.14 in / 1020.7 hPa 10.0 miles / 16.1 kilometers West 12.7 mph / 20.4 km/h - N/A   Clear
7:53 PM 39.0°F / 3.9°C 19.9°F / -6.7°C 46% 30.16 in / 1021.2 hPa 10.0 miles / 16.1 kilometers WNW 10.4 mph / 16.7 km/h - N/A   Clear
8:53 PM 42.1°F / 5.6°C 19.9°F / -6.7°C 41% 30.17 in / 1021.6 hPa 10.0 miles / 16.1 kilometers WNW 17.3 mph / 27.8 km/h - N/A   Clear
9:53 PM 35.1°F / 1.7°C 19.0°F / -7.2°C 52% 30.19 in / 1022.3 hPa 10.0 miles / 16.1 kilometers West 4.6 mph / 7.4 km/h - N/A   Clear
10:53 PM 30.9°F / -0.6°C 18.0°F / -7.8°C 59% 30.21 in / 1023.0 hPa 10.0 miles / 16.1 kilometers Calm Calm - N/A   Clear
11:53 PM 30.9°F / -0.6°C 19.0°F / -7.2°C 61% 30.22 in / 1023.4 hPa 10.0 miles / 16.1 kilometers North 3.5 mph / 5.6 km/h - N/A   Clear
Moon Phase
Feb. 25 Feb. 25 Mar. 04 Mar. 11 Mar. 19
Sunrise:06:48 AM (PST) Moon Rise:06:05 PM (PST)2/25
Sunset:05:42 PM (PST) Moon Set:06:18 AM (PST)2/25

Copyright © 2014 The Weather Underground, Inc.